Data start date =,1/2/1988
Data end date/time =,6/1/2023 5:00
""
""
Date/Time,LockDam_01-Powerhouse
,Flow
UTC,cfs
,Ave
1/2/1988 6:00,2200
1/3/1988 6:00,2360
1/4/1988 6:00,3470
1/5/1988 6:00,3650
1/6/1988 6:00,2850
1/7/1988 6:00,3050
1/8/1988 6:00,2850
1/9/1988 6:00,3450
1/10/1988 6:00,3640
1/11/1988 6:00,3250
1/12/1988 6:00,3350
1/13/1988 6:00,3220
1/14/1988 6:00,3210
1/15/1988 6:00,2270
1/16/1988 6:00,2580
1/17/1988 6:00,2900
1/18/1988 6:00,3140
1/19/1988 6:00,3020
1/20/1988 6:00,3080
1/21/1988 6:00,2880
1/22/1988 6:00,3010
1/23/1988 6:00,2980
1/24/1988 6:00,2830
1/25/1988 6:00,2310
1/26/1988 6:00,2580
1/27/1988 6:00,1980
1/28/1988 6:00,2610
1/29/1988 6:00,2890
1/30/1988 6:00,2930
1/31/1988 6:00,3170
2/1/1988 6:00,3540
2/2/1988 6:00,2870
2/3/1988 6:00,2750
2/4/1988 6:00,2860
2/5/1988 6:00,3530
2/6/1988 6:00,3180
2/7/1988 6:00,2540
2/8/1988 6:00,3100
2/9/1988 6:00,3480
2/10/1988 6:00,3520
2/11/1988 6:00,3450
2/12/1988 6:00,2720
2/13/1988 6:00,3410
2/14/1988 6:00,2760
2/15/1988 6:00,3200
2/16/1988 6:00,3000
2/17/1988 6:00,2920
2/18/1988 6:00,3350
2/19/1988 6:00,3670
2/20/1988 6:00,3780
2/21/1988 6:00,3200
2/22/1988 6:00,3030
2/23/1988 6:00,3810
2/24/1988 6:00,2940
2/25/1988 6:00,2930
2/26/1988 6:00,3080
2/27/1988 6:00,3510
2/28/1988 6:00,3300
2/29/1988 6:00,3550
3/1/1988 6:00,3630
3/2/1988 6:00,3730
3/3/1988 6:00,3960
3/4/1988 6:00,3820
3/5/1988 6:00,4060
3/6/1988 6:00,4060
3/7/1988 6:00,4350
3/8/1988 6:00,4210
3/9/1988 6:00,4380
3/10/1988 6:00,4850
3/11/1988 6:00,5240
3/12/1988 6:00,5540
3/13/1988 6:00,6130
3/14/1988 6:00,5610
3/15/1988 6:00,5290
3/16/1988 6:00,5130
3/17/1988 6:00,6130
3/18/1988 6:00,6380
3/19/1988 6:00,6110
3/20/1988 6:00,5830
3/21/1988 6:00,5390
3/22/1988 6:00,4900
3/23/1988 6:00,5170
3/24/1988 6:00,5680
3/25/1988 6:00,5690
3/26/1988 6:00,5960
3/27/1988 6:00,7570
3/28/1988 6:00,8130
3/29/1988 6:00,9010
3/30/1988 6:00,9810
3/31/1988 6:00,10600
4/1/1988 6:00,9660
4/2/1988 6:00,9160
4/3/1988 6:00,9190
4/4/1988 5:00,9620
4/5/1988 5:00,9850
4/6/1988 5:00,9830
4/7/1988 5:00,9520
4/8/1988 5:00,10600
4/9/1988 5:00,10800
4/10/1988 5:00,10500
4/11/1988 5:00,11300
4/12/1988 5:00,11300
4/13/1988 5:00,10900
4/14/1988 5:00,10800
4/15/1988 5:00,10300
4/16/1988 5:00,10900
4/17/1988 5:00,11100
4/18/1988 5:00,10400
4/19/1988 5:00,9930
4/20/1988 5:00,9600
4/21/1988 5:00,9330
4/22/1988 5:00,9290
4/23/1988 5:00,9010
4/24/1988 5:00,8610
4/25/1988 5:00,8230
4/26/1988 5:00,7680
4/27/1988 5:00,7510
4/28/1988 5:00,7140
4/29/1988 5:00,6610
4/30/1988 5:00,5790
5/1/1988 5:00,5120
5/2/1988 5:00,5260
5/3/1988 5:00,4350
5/4/1988 5:00,4810
5/5/1988 5:00,4150
5/6/1988 5:00,3830
5/7/1988 5:00,4290
5/8/1988 5:00,4100
5/9/1988 5:00,4210
5/10/1988 5:00,5590
5/11/1988 5:00,5600
5/12/1988 5:00,5600
5/13/1988 5:00,5470
5/14/1988 5:00,5520
5/15/1988 5:00,5540
5/16/1988 5:00,5790
5/17/1988 5:00,5360
5/18/1988 5:00,5290
5/19/1988 5:00,5310
5/20/1988 5:00,5070
5/21/1988 5:00,5200
5/22/1988 5:00,5560
5/23/1988 5:00,4230
5/24/1988 5:00,4500
5/25/1988 5:00,4420
5/26/1988 5:00,4360
5/27/1988 5:00,3860
5/28/1988 5:00,3870
5/29/1988 5:00,3630
5/30/1988 5:00,4030
5/31/1988 5:00,3230
6/1/1988 5:00,3260
6/2/1988 5:00,2530
6/3/1988 5:00,2800
6/4/1988 5:00,2870
6/5/1988 5:00,2430
6/6/1988 5:00,1850
6/7/1988 5:00,1770
6/8/1988 5:00,1460
6/9/1988 5:00,1560
6/10/1988 5:00,1970
6/11/1988 5:00,1520
6/12/1988 5:00,1240
6/13/1988 5:00,1140
6/14/1988 5:00,1050
6/15/1988 5:00,1110
6/16/1988 5:00,1010
6/17/1988 5:00,1100
6/18/1988 5:00,1090
6/19/1988 5:00,1130
6/20/1988 5:00,924
6/21/1988 5:00,1110
6/22/1988 5:00,1520
6/23/1988 5:00,1400
6/24/1988 5:00,467
6/25/1988 5:00,852
6/26/1988 5:00,1260
6/27/1988 5:00,816
6/28/1988 5:00,1040
6/29/1988 5:00,933
6/30/1988 5:00,859
7/1/1988 5:00,750
7/2/1988 5:00,723
7/3/1988 5:00,1140
7/4/1988 5:00,556
7/5/1988 5:00,551
7/6/1988 5:00,552
7/7/1988 5:00,730
7/8/1988 5:00,399
7/9/1988 5:00,573
7/10/1988 5:00,628
7/11/1988 5:00,612
7/12/1988 5:00,555
7/13/1988 5:00,1320
7/14/1988 5:00,876
7/15/1988 5:00,49
7/16/1988 5:00,424
7/17/1988 5:00,815
7/18/1988 5:00,709
7/19/1988 5:00,779
7/20/1988 5:00,717
7/21/1988 5:00,1240
7/22/1988 5:00,858
7/23/1988 5:00,807
7/24/1988 5:00,547
7/25/1988 5:00,593
7/26/1988 5:00,544
7/27/1988 5:00,476
7/28/1988 5:00,434
7/29/1988 5:00,503
7/30/1988 5:00,525
7/31/1988 5:00,500
8/1/1988 5:00,303
8/2/1988 5:00,413
8/3/1988 5:00,791
8/4/1988 5:00,1190
8/5/1988 5:00,2430
8/6/1988 5:00,1000
8/7/1988 5:00,897
8/8/1988 5:00,1230
8/9/1988 5:00,1490
8/10/1988 5:00,1330
8/11/1988 5:00,990
8/12/1988 5:00,803
8/13/1988 5:00,971
8/14/1988 5:00,1130
8/15/1988 5:00,1390
8/16/1988 5:00,2540
8/17/1988 5:00,2580
8/18/1988 5:00,1590
8/19/1988 5:00,1560
8/20/1988 5:00,2010
8/21/1988 5:00,3070
8/22/1988 5:00,3250
8/23/1988 5:00,3940
8/24/1988 5:00,4480
8/25/1988 5:00,4780
8/26/1988 5:00,4420
8/27/1988 5:00,4060
8/28/1988 5:00,3720
8/29/1988 5:00,3610
8/30/1988 5:00,3640
8/31/1988 5:00,3880
9/1/1988 5:00,3370
9/2/1988 5:00,3680
9/3/1988 5:00,3250
9/4/1988 5:00,2940
9/5/1988 5:00,2980
9/6/1988 5:00,2910
9/7/1988 5:00,2150
9/8/1988 5:00,2320
9/9/1988 5:00,2310
9/10/1988 5:00,2230
9/11/1988 5:00,2200
9/12/1988 5:00,1520
9/13/1988 5:00,1870
9/14/1988 5:00,2540
9/15/1988 5:00,1640
9/16/1988 5:00,2080
9/17/1988 5:00,2270
9/18/1988 5:00,2210
9/19/1988 5:00,1960
9/20/1988 5:00,2990
9/21/1988 5:00,3020
9/22/1988 5:00,2190
9/23/1988 5:00,2630
9/24/1988 5:00,2310
9/25/1988 5:00,2300
9/26/1988 5:00,2140
9/27/1988 5:00,3930
9/28/1988 5:00,4470
9/29/1988 5:00,4010
9/30/1988 5:00,4280
10/1/1988 5:00,4540
10/2/1988 5:00,5040
10/3/1988 5:00,5070
10/4/1988 5:00,5200
10/5/1988 5:00,5190
10/6/1988 5:00,5390
10/7/1988 5:00,4670
10/8/1988 5:00,4820
10/9/1988 5:00,4160
10/10/1988 5:00,4070
10/11/1988 5:00,4130
10/12/1988 5:00,4070
10/13/1988 5:00,3250
10/14/1988 5:00,3370
10/15/1988 5:00,3270
10/16/1988 5:00,3930
10/17/1988 5:00,3220
10/18/1988 5:00,3430
10/19/1988 5:00,3530
10/20/1988 5:00,2970
10/21/1988 5:00,3160
10/22/1988 5:00,2680
10/23/1988 5:00,3450
10/24/1988 5:00,3460
10/25/1988 5:00,3400
10/26/1988 5:00,3830
10/27/1988 5:00,3170
10/28/1988 5:00,3660
10/29/1988 5:00,3000
10/30/1988 5:00,3140
10/31/1988 6:00,2800
11/1/1988 6:00,3380
11/2/1988 6:00,2980
11/3/1988 6:00,3070
11/4/1988 6:00,2960
11/5/1988 6:00,3440
11/6/1988 6:00,3430
11/7/1988 6:00,3420
11/8/1988 6:00,3190
11/9/1988 6:00,2980
11/10/1988 6:00,2970
11/11/1988 6:00,2850
11/12/1988 6:00,3390
11/13/1988 6:00,3310
11/14/1988 6:00,3310
11/15/1988 6:00,3360
11/16/1988 6:00,3520
11/17/1988 6:00,3880
11/18/1988 6:00,3890
11/19/1988 6:00,3830
11/20/1988 6:00,3130
11/21/1988 6:00,3230
11/22/1988 6:00,3090
11/23/1988 6:00,2660
11/24/1988 6:00,3080
11/25/1988 6:00,3430
11/26/1988 6:00,3750
11/27/1988 6:00,4050
11/28/1988 6:00,4600
11/29/1988 6:00,4320
11/30/1988 6:00,3190
12/1/1988 6:00,3310
12/2/1988 6:00,2620
12/3/1988 6:00,2910
12/4/1988 6:00,3520
12/5/1988 6:00,3710
12/6/1988 6:00,4050
12/7/1988 6:00,4060
12/8/1988 6:00,4360
12/9/1988 6:00,3890
12/10/1988 6:00,2910
12/11/1988 6:00,2580
12/12/1988 6:00,2590
12/13/1988 6:00,1950
12/14/1988 6:00,2700
12/15/1988 6:00,3910
12/16/1988 6:00,3260
12/17/1988 6:00,1170
12/18/1988 6:00,1910
12/19/1988 6:00,2540
12/20/1988 6:00,3290
12/21/1988 6:00,3870
12/22/1988 6:00,3720
12/23/1988 6:00,3190
12/24/1988 6:00,3640
12/25/1988 6:00,3370
12/26/1988 6:00,2650
12/27/1988 6:00,2580
12/28/1988 6:00,2900
12/29/1988 6:00,2460
12/30/1988 6:00,2280
12/31/1988 6:00,2890
1/1/1989 6:00,3360
1/2/1989 6:00,2960
1/3/1989 6:00,2970
1/4/1989 6:00,2880
1/5/1989 6:00,2830
1/6/1989 6:00,3110
1/7/1989 6:00,3560
1/8/1989 6:00,3510
1/9/1989 6:00,3160
1/10/1989 6:00,2280
1/11/1989 6:00,2540
1/12/1989 6:00,2480
1/13/1989 6:00,2440
1/14/1989 6:00,2620
1/15/1989 6:00,2900
1/16/1989 6:00,2440
1/17/1989 6:00,3380
1/18/1989 6:00,3000
1/19/1989 6:00,3160
1/20/1989 6:00,3170
1/21/1989 6:00,3380
1/22/1989 6:00,3370
1/23/1989 6:00,3650
1/24/1989 6:00,3360
1/25/1989 6:00,3700
1/26/1989 6:00,3090
1/27/1989 6:00,3090
1/28/1989 6:00,3350
1/29/1989 6:00,3610
1/30/1989 6:00,3890
1/31/1989 6:00,4920
2/1/1989 6:00,3820
2/2/1989 6:00,3450
2/3/1989 6:00,2010
2/4/1989 6:00,1820
2/5/1989 6:00,2970
2/6/1989 6:00,3310
2/7/1989 6:00,3560
2/8/1989 6:00,4020
2/9/1989 6:00,3900
2/10/1989 6:00,3440
2/11/1989 6:00,3380
2/12/1989 6:00,3880
2/13/1989 6:00,4030
2/14/1989 6:00,3990
2/15/1989 6:00,3880
2/16/1989 6:00,3860
2/17/1989 6:00,3770
2/18/1989 6:00,3770
2/19/1989 6:00,3720
2/20/1989 6:00,3600
2/21/1989 6:00,3210
2/22/1989 6:00,3840
2/23/1989 6:00,3680
2/24/1989 6:00,3440
2/25/1989 6:00,3900
2/26/1989 6:00,4190
2/27/1989 6:00,4010
2/28/1989 6:00,3480
3/1/1989 6:00,3710
3/2/1989 6:00,3220
3/3/1989 6:00,3410
3/4/1989 6:00,3440
3/5/1989 6:00,2450
3/6/1989 6:00,3440
3/7/1989 6:00,3990
3/8/1989 6:00,3940
3/9/1989 6:00,4130
3/10/1989 6:00,4190
3/11/1989 6:00,3940
3/12/1989 6:00,3540
3/13/1989 6:00,4140
3/14/1989 6:00,3850
3/15/1989 6:00,4080
3/16/1989 6:00,3270
3/17/1989 6:00,3660
3/18/1989 6:00,3880
3/19/1989 6:00,3860
3/20/1989 6:00,4060
3/21/1989 6:00,4010
3/22/1989 6:00,3340
3/23/1989 6:00,3430
3/24/1989 6:00,4180
3/25/1989 6:00,4500
3/26/1989 6:00,4730
3/27/1989 6:00,5460
3/28/1989 6:00,6470
3/29/1989 6:00,7000
3/30/1989 6:00,7680
3/31/1989 6:00,9060
4/1/1989 6:00,9570
4/2/1989 6:00,10700
4/3/1989 5:00,11700
4/4/1989 5:00,13400
4/5/1989 5:00,14700
4/6/1989 5:00,15200
4/7/1989 5:00,17300
4/8/1989 5:00,19200
4/9/1989 5:00,20800
4/10/1989 5:00,22400
4/11/1989 5:00,22900
4/12/1989 5:00,22600
4/13/1989 5:00,22300
4/14/1989 5:00,22400
4/15/1989 5:00,22400
4/16/1989 5:00,21900
4/17/1989 5:00,21800
4/18/1989 5:00,21900
4/19/1989 5:00,22200
4/20/1989 5:00,22400
4/21/1989 5:00,23300
4/22/1989 5:00,17600
4/23/1989 5:00,16500
4/24/1989 5:00,15600
4/25/1989 5:00,15500
4/26/1989 5:00,16000
4/27/1989 5:00,16200
4/28/1989 5:00,15800
4/29/1989 5:00,15600
4/30/1989 5:00,15400
5/1/1989 5:00,15700
5/2/1989 5:00,15300
5/3/1989 5:00,15600
5/4/1989 5:00,15200
5/5/1989 5:00,15900
5/6/1989 5:00,15200
5/7/1989 5:00,15200
5/8/1989 5:00,14400
5/9/1989 5:00,15000
5/10/1989 5:00,15300
5/11/1989 5:00,14900
5/12/1989 5:00,14700
5/13/1989 5:00,14500
5/14/1989 5:00,13700
5/15/1989 5:00,12600
5/16/1989 5:00,12600
5/17/1989 5:00,11200
5/18/1989 5:00,10900
5/19/1989 5:00,10000
5/20/1989 5:00,10000
5/21/1989 5:00,8110
5/22/1989 5:00,8450
5/23/1989 5:00,8640
5/24/1989 5:00,8790
5/25/1989 5:00,8970
5/26/1989 5:00,8840
5/27/1989 5:00,9170
5/28/1989 5:00,9430
5/29/1989 5:00,9820
5/30/1989 5:00,10500
5/31/1989 5:00,10600
6/1/1989 5:00,10300
6/2/1989 5:00,9990
6/3/1989 5:00,9680
6/4/1989 5:00,9090
6/5/1989 5:00,8890
6/6/1989 5:00,8400
6/7/1989 5:00,7720
6/8/1989 5:00,8030
6/9/1989 5:00,6110
6/10/1989 5:00,6380
6/11/1989 5:00,5880
6/12/1989 5:00,5260
6/13/1989 5:00,5540
6/14/1989 5:00,4930
6/15/1989 5:00,5800
6/16/1989 5:00,5260
6/17/1989 5:00,5120
6/18/1989 5:00,4890
6/19/1989 5:00,4750
6/20/1989 5:00,5580
6/21/1989 5:00,4750
6/22/1989 5:00,4560
6/23/1989 5:00,6130
6/24/1989 5:00,5100
6/25/1989 5:00,5430
6/26/1989 5:00,6690
6/27/1989 5:00,7230
6/28/1989 5:00,7930
6/29/1989 5:00,6640
6/30/1989 5:00,6430
7/1/1989 5:00,6100
7/2/1989 5:00,6060
7/3/1989 5:00,5740
7/4/1989 5:00,5920
7/5/1989 5:00,5670
7/6/1989 5:00,5770
7/7/1989 5:00,5420
7/8/1989 5:00,5340
7/9/1989 5:00,5590
7/10/1989 5:00,5170
7/11/1989 5:00,4960
7/12/1989 5:00,5330
7/13/1989 5:00,4590
7/14/1989 5:00,4590
7/15/1989 5:00,3910
7/16/1989 5:00,4240
7/17/1989 5:00,4310
7/18/1989 5:00,3560
7/19/1989 5:00,4080
7/20/1989 5:00,4800
7/21/1989 5:00,4240
7/22/1989 5:00,4270
7/23/1989 5:00,3970
7/24/1989 5:00,3580
7/25/1989 5:00,3230
7/26/1989 5:00,3520
7/27/1989 5:00,3290
7/28/1989 5:00,2550
7/29/1989 5:00,3020
7/30/1989 5:00,2580
7/31/1989 5:00,3690
8/1/1989 5:00,2610
8/2/1989 5:00,2710
8/3/1989 5:00,3130
8/4/1989 5:00,2390
8/5/1989 5:00,2330
8/6/1989 5:00,2140
8/7/1989 5:00,1890
8/8/1989 5:00,1690
8/9/1989 5:00,1690
8/10/1989 5:00,1730
8/11/1989 5:00,1410
8/12/1989 5:00,1510
8/13/1989 5:00,1970
8/14/1989 5:00,1380
8/15/1989 5:00,2000
8/16/1989 5:00,1900
8/17/1989 5:00,1360
8/18/1989 5:00,1260
8/19/1989 5:00,1410
8/20/1989 5:00,1510
8/21/1989 5:00,837
8/22/1989 5:00,1310
8/23/1989 5:00,1960
8/24/1989 5:00,2380
8/25/1989 5:00,1440
8/26/1989 5:00,1670
8/27/1989 5:00,1610
8/28/1989 5:00,1340
8/29/1989 5:00,1620
8/30/1989 5:00,1730
8/31/1989 5:00,1980
9/1/1989 5:00,2240
9/2/1989 5:00,2320
9/3/1989 5:00,3240
9/4/1989 5:00,3160
9/5/1989 5:00,3180
9/6/1989 5:00,3490
9/7/1989 5:00,5350
9/8/1989 5:00,5400
9/9/1989 5:00,4940
9/10/1989 5:00,4860
9/11/1989 5:00,5270
9/12/1989 5:00,5360
9/13/1989 5:00,5290
9/14/1989 5:00,5210
9/15/1989 5:00,4900
9/16/1989 5:00,5080
9/17/1989 5:00,4990
9/18/1989 5:00,4620
9/19/1989 5:00,4700
9/20/1989 5:00,4420
9/21/1989 5:00,4950
9/22/1989 5:00,4620
9/23/1989 5:00,5100
9/24/1989 5:00,4680
9/25/1989 5:00,4850
9/26/1989 5:00,4650
9/27/1989 5:00,4970
9/28/1989 5:00,5110
9/29/1989 5:00,4830
9/30/1989 5:00,4660
10/1/1989 5:00,4540
10/2/1989 5:00,5060
10/3/1989 5:00,4430
10/4/1989 5:00,4500
10/5/1989 5:00,4610
10/6/1989 5:00,4710
10/7/1989 5:00,4220
10/8/1989 5:00,4400
10/9/1989 5:00,4110
10/10/1989 5:00,4130
10/11/1989 5:00,4030
10/12/1989 5:00,3870
10/13/1989 5:00,4040
10/14/1989 5:00,3550
10/15/1989 5:00,4050
10/16/1989 5:00,3890
10/17/1989 5:00,3330
10/18/1989 5:00,3770
10/19/1989 5:00,3940
10/20/1989 5:00,3720
10/21/1989 5:00,3730
10/22/1989 5:00,3670
10/23/1989 5:00,3630
10/24/1989 5:00,3380
10/25/1989 5:00,3660
10/26/1989 5:00,4210
10/27/1989 5:00,4480
10/28/1989 5:00,3730
10/29/1989 5:00,3450
10/30/1989 6:00,3450
10/31/1989 6:00,3510
11/1/1989 6:00,3790
11/2/1989 6:00,4130
11/3/1989 6:00,3480
11/4/1989 6:00,3820
11/5/1989 6:00,4170
11/6/1989 6:00,3930
11/7/1989 6:00,3780
11/8/1989 6:00,4070
11/9/1989 6:00,4370
11/10/1989 6:00,4220
11/11/1989 6:00,4270
11/12/1989 6:00,4750
11/13/1989 6:00,4340
11/14/1989 6:00,4070
11/15/1989 6:00,4100
11/16/1989 6:00,4710
11/17/1989 6:00,4480
11/18/1989 6:00,3920
11/19/1989 6:00,3400
11/20/1989 6:00,2840
11/21/1989 6:00,2460
11/22/1989 6:00,3290
11/23/1989 6:00,2690
11/24/1989 6:00,3690
11/25/1989 6:00,2880
11/26/1989 6:00,2300
11/27/1989 6:00,2660
11/28/1989 6:00,3300
11/29/1989 6:00,4540
11/30/1989 6:00,3960
12/1/1989 6:00,2590
12/2/1989 6:00,2920
12/3/1989 6:00,3860
12/4/1989 6:00,3400
12/5/1989 6:00,1760
12/6/1989 6:00,3130
12/7/1989 6:00,4120
12/8/1989 6:00,3780
12/9/1989 6:00,2690
12/10/1989 6:00,2510
12/11/1989 6:00,2970
12/12/1989 6:00,3520
12/13/1989 6:00,2570
12/14/1989 6:00,2070
12/15/1989 6:00,1730
12/16/1989 6:00,2230
12/17/1989 6:00,1410
12/18/1989 6:00,2300
12/19/1989 6:00,2330
12/20/1989 6:00,2490
12/21/1989 6:00,1920
12/22/1989 6:00,1650
12/23/1989 6:00,2170
12/24/1989 6:00,1440
12/25/1989 6:00,1450
12/26/1989 6:00,1840
12/27/1989 6:00,2530
12/28/1989 6:00,2300
12/29/1989 6:00,2040
12/30/1989 6:00,2260
12/31/1989 6:00,2680
1/1/1990 6:00,2600
1/2/1990 6:00,2490
1/3/1990 6:00,2440
1/4/1990 6:00,2560
1/5/1990 6:00,2680
1/6/1990 6:00,2440
1/7/1990 6:00,2210
1/8/1990 6:00,2440
1/9/1990 6:00,3120
1/10/1990 6:00,2550
1/11/1990 6:00,2520
1/12/1990 6:00,2500
1/13/1990 6:00,2230
1/14/1990 6:00,2180
1/15/1990 6:00,2540
1/16/1990 6:00,2770
1/17/1990 6:00,2710
1/18/1990 6:00,2530
1/19/1990 6:00,2530
1/20/1990 6:00,2560
1/21/1990 6:00,2640
1/22/1990 6:00,2120
1/23/1990 6:00,2580
1/24/1990 6:00,2440
1/25/1990 6:00,2490
1/26/1990 6:00,2410
1/27/1990 6:00,2730
1/28/1990 6:00,2550
1/29/1990 6:00,2510
1/30/1990 6:00,2600
1/31/1990 6:00,2620
2/1/1990 6:00,2020
2/2/1990 6:00,2040
2/3/1990 6:00,2170
2/4/1990 6:00,2470
2/5/1990 6:00,2440
2/6/1990 6:00,2590
2/7/1990 6:00,2440
2/8/1990 6:00,2360
2/9/1990 6:00,2460
2/10/1990 6:00,2430
2/11/1990 6:00,2400
2/12/1990 6:00,2420
2/13/1990 6:00,2780
2/14/1990 6:00,2540
2/15/1990 6:00,2270
2/16/1990 6:00,2340
2/17/1990 6:00,2330
2/18/1990 6:00,2710
2/19/1990 6:00,2700
2/20/1990 6:00,2330
2/21/1990 6:00,2530
2/22/1990 6:00,2290
2/23/1990 6:00,2680
2/24/1990 6:00,2400
2/25/1990 6:00,2050
2/26/1990 6:00,1620
2/27/1990 6:00,2390
2/28/1990 6:00,2370
3/1/1990 6:00,2230
3/2/1990 6:00,2420
3/3/1990 6:00,2800
3/4/1990 6:00,2270
3/5/1990 6:00,2430
3/6/1990 6:00,2360
3/7/1990 6:00,2370
3/8/1990 6:00,2510
3/9/1990 6:00,2680
3/10/1990 6:00,2750
3/11/1990 6:00,2630
3/12/1990 6:00,5710
3/13/1990 6:00,5400
3/14/1990 6:00,6940
3/15/1990 6:00,10400
3/16/1990 6:00,11000
3/17/1990 6:00,14600
3/18/1990 6:00,16600
3/19/1990 6:00,15000
3/20/1990 6:00,15200
3/21/1990 6:00,16000
3/22/1990 6:00,16300
3/23/1990 6:00,15400
3/24/1990 6:00,13300
3/25/1990 6:00,12300
3/26/1990 6:00,11600
3/27/1990 6:00,10700
3/28/1990 6:00,10000
3/29/1990 6:00,9850
3/30/1990 6:00,9410
3/31/1990 6:00,9310
4/1/1990 6:00,8810
4/2/1990 5:00,8430
4/3/1990 5:00,8720
4/4/1990 5:00,8300
4/5/1990 5:00,8260
4/6/1990 5:00,8680
4/7/1990 5:00,8480
4/8/1990 5:00,8880
4/9/1990 5:00,8330
4/10/1990 5:00,8480
4/11/1990 5:00,8950
4/12/1990 5:00,7950
4/13/1990 5:00,7730
4/14/1990 5:00,7130
4/15/1990 5:00,6920
4/16/1990 5:00,6410
4/17/1990 5:00,6460
4/18/1990 5:00,6590
4/19/1990 5:00,5910
4/20/1990 5:00,5520
4/21/1990 5:00,5330
4/22/1990 5:00,5450
4/23/1990 5:00,4890
4/24/1990 5:00,5730
4/25/1990 5:00,5570
4/26/1990 5:00,5840
4/27/1990 5:00,6060
4/28/1990 5:00,7080
4/29/1990 5:00,6780
4/30/1990 5:00,7790
5/1/1990 5:00,8050
5/2/1990 5:00,8890
5/3/1990 5:00,10600
5/4/1990 5:00,11700
5/5/1990 5:00,11500
5/6/1990 5:00,12100
5/7/1990 5:00,15600
5/8/1990 5:00,13500
5/9/1990 5:00,12900
5/10/1990 5:00,12400
5/11/1990 5:00,10800
5/12/1990 5:00,9080
5/13/1990 5:00,9080
5/14/1990 5:00,9080
5/15/1990 5:00,9220
5/16/1990 5:00,9060
5/17/1990 5:00,9330
5/18/1990 5:00,8850
5/19/1990 5:00,8460
5/20/1990 5:00,9010
5/21/1990 5:00,8930
5/22/1990 5:00,8580
5/23/1990 5:00,8440
5/24/1990 5:00,8350
5/25/1990 5:00,8540
5/26/1990 5:00,8450
5/27/1990 5:00,8400
5/28/1990 5:00,8740
5/29/1990 5:00,8450
5/30/1990 5:00,8650
5/31/1990 5:00,8850
6/1/1990 5:00,8080
6/2/1990 5:00,8470
6/3/1990 5:00,7950
6/4/1990 5:00,9440
6/5/1990 5:00,9560
6/6/1990 5:00,10700
6/7/1990 5:00,13000
6/8/1990 5:00,14700
6/9/1990 5:00,15000
6/10/1990 5:00,15100
6/11/1990 5:00,15700
6/12/1990 5:00,16600
6/13/1990 5:00,17000
6/14/1990 5:00,16400
6/15/1990 5:00,15800
6/16/1990 5:00,15500
6/17/1990 5:00,15700
6/18/1990 5:00,17600
6/19/1990 5:00,17100
6/20/1990 5:00,17800
6/21/1990 5:00,17100
6/22/1990 5:00,16800
6/23/1990 5:00,16800
6/24/1990 5:00,17400
6/25/1990 5:00,17300
6/26/1990 5:00,17400
6/27/1990 5:00,17000
6/28/1990 5:00,16400
6/29/1990 5:00,15900
6/30/1990 5:00,14600
7/1/1990 5:00,14000
7/2/1990 5:00,12900
7/3/1990 5:00,12000
7/4/1990 5:00,11400
7/5/1990 5:00,10300
7/6/1990 5:00,10200
7/7/1990 5:00,9330
7/8/1990 5:00,9310
7/9/1990 5:00,8840
7/10/1990 5:00,9280
7/11/1990 5:00,8690
7/12/1990 5:00,8500
7/13/1990 5:00,9040
7/14/1990 5:00,8800
7/15/1990 5:00,7990
7/16/1990 5:00,8180
7/17/1990 5:00,7940
7/18/1990 5:00,8210
7/19/1990 5:00,7300
7/20/1990 5:00,7650
7/21/1990 5:00,6850
7/22/1990 5:00,6540
7/23/1990 5:00,5880
7/24/1990 5:00,5950
7/25/1990 5:00,5570
7/26/1990 5:00,5500
7/27/1990 5:00,7550
7/28/1990 5:00,7220
7/29/1990 5:00,7470
7/30/1990 5:00,7690
7/31/1990 5:00,7950
8/1/1990 5:00,7770
8/2/1990 5:00,7880
8/3/1990 5:00,7950
8/4/1990 5:00,7790
8/5/1990 5:00,7330
8/6/1990 5:00,7390
8/7/1990 5:00,7280
8/8/1990 5:00,6670
8/9/1990 5:00,6240
8/10/1990 5:00,5590
8/11/1990 5:00,5080
8/12/1990 5:00,4590
8/13/1990 5:00,4250
8/14/1990 5:00,3540
8/15/1990 5:00,3500
8/16/1990 5:00,3440
8/17/1990 5:00,3480
8/18/1990 5:00,5960
8/19/1990 5:00,4180
8/20/1990 5:00,4280
8/21/1990 5:00,5290
8/22/1990 5:00,5060
8/23/1990 5:00,4310
8/24/1990 5:00,4340
8/25/1990 5:00,4530
8/26/1990 5:00,4580
8/27/1990 5:00,5100
8/28/1990 5:00,5040
8/29/1990 5:00,5940
8/30/1990 5:00,4480
8/31/1990 5:00,4980
9/1/1990 5:00,4460
9/2/1990 5:00,3490
9/3/1990 5:00,4050
9/4/1990 5:00,4100
9/5/1990 5:00,4050
9/6/1990 5:00,3910
9/7/1990 5:00,3720
9/8/1990 5:00,3700
9/9/1990 5:00,3990
9/10/1990 5:00,3390
9/11/1990 5:00,3220
9/12/1990 5:00,4470
9/13/1990 5:00,5180
9/14/1990 5:00,4560
9/15/1990 5:00,4670
9/16/1990 5:00,3570
9/17/1990 5:00,3080
9/18/1990 5:00,3150
9/19/1990 5:00,2920
9/20/1990 5:00,3290
9/21/1990 5:00,3330
9/22/1990 5:00,3670
9/23/1990 5:00,3630
9/24/1990 5:00,3260
9/25/1990 5:00,3580
9/26/1990 5:00,3360
9/27/1990 5:00,3400
9/28/1990 5:00,2960
9/29/1990 5:00,3400
9/30/1990 5:00,2810
10/1/1990 5:00,3400
10/2/1990 5:00,2810
10/3/1990 5:00,2590
10/4/1990 5:00,3750
10/5/1990 5:00,4030
10/6/1990 5:00,3810
10/7/1990 5:00,4170
10/8/1990 5:00,3970
10/9/1990 5:00,4110
10/10/1990 5:00,4240
10/11/1990 5:00,4460
10/12/1990 5:00,4700
10/13/1990 5:00,4390
10/14/1990 5:00,4300
10/15/1990 5:00,4250
10/16/1990 5:00,4190
10/17/1990 5:00,4050
10/18/1990 5:00,4460
10/19/1990 5:00,4930
10/20/1990 5:00,4150
10/21/1990 5:00,5360
10/22/1990 5:00,4740
10/23/1990 5:00,5590
10/24/1990 5:00,6960
10/25/1990 5:00,7210
10/26/1990 5:00,7600
10/27/1990 5:00,7420
10/28/1990 5:00,7690
10/29/1990 6:00,7230
10/30/1990 6:00,6950
10/31/1990 6:00,6770
11/1/1990 6:00,7250
11/2/1990 6:00,6860
11/3/1990 6:00,6350
11/4/1990 6:00,6740
11/5/1990 6:00,6540
11/6/1990 6:00,6290
11/7/1990 6:00,6010
11/8/1990 6:00,5840
11/9/1990 6:00,6050
11/10/1990 6:00,5750
11/11/1990 6:00,5940
11/12/1990 6:00,5370
11/13/1990 6:00,5340
11/14/1990 6:00,4970
11/15/1990 6:00,4900
11/16/1990 6:00,5160
11/17/1990 6:00,5030
11/18/1990 6:00,5130
11/19/1990 6:00,4920
11/20/1990 6:00,5150
11/21/1990 6:00,4840
11/22/1990 6:00,4970
11/23/1990 6:00,4820
11/24/1990 6:00,4680
11/25/1990 6:00,4930
11/26/1990 6:00,4400
11/27/1990 6:00,4690
11/28/1990 6:00,3870
11/29/1990 6:00,4100
11/30/1990 6:00,3310
12/1/1990 6:00,2880
12/2/1990 6:00,2990
12/3/1990 6:00,2600
12/4/1990 6:00,3230
12/5/1990 6:00,3350
12/6/1990 6:00,3300
12/7/1990 6:00,3400
12/8/1990 6:00,3610
12/9/1990 6:00,3910
12/10/1990 6:00,3980
12/11/1990 6:00,3550
12/12/1990 6:00,3770
12/13/1990 6:00,3870
12/14/1990 6:00,3640
12/15/1990 6:00,2730
12/16/1990 6:00,3040
12/17/1990 6:00,3700
12/18/1990 6:00,3530
12/19/1990 6:00,3130
12/20/1990 6:00,2700
12/21/1990 6:00,2690
12/22/1990 6:00,1410
12/23/1990 6:00,1310
12/24/1990 6:00,1350
12/25/1990 6:00,2720
12/26/1990 6:00,2880
12/27/1990 6:00,2880
12/28/1990 6:00,2750
12/29/1990 6:00,2570
12/30/1990 6:00,3370
12/31/1990 6:00,2850
1/1/1991 6:00,2830
1/2/1991 6:00,3090
1/3/1991 6:00,2860
1/4/1991 6:00,2790
1/5/1991 6:00,2780
1/6/1991 6:00,2570
1/7/1991 6:00,2820
1/8/1991 6:00,2720
1/9/1991 6:00,2630
1/10/1991 6:00,2630
1/11/1991 6:00,2650
1/12/1991 6:00,2600
1/13/1991 6:00,2680
1/14/1991 6:00,2690
1/15/1991 6:00,2700
1/16/1991 6:00,2850
1/17/1991 6:00,2670
1/18/1991 6:00,2750
1/19/1991 6:00,2650
1/20/1991 6:00,2510
1/21/1991 6:00,2850
1/22/1991 6:00,2290
1/23/1991 6:00,2480
1/24/1991 6:00,2640
1/25/1991 6:00,2470
1/26/1991 6:00,2430
1/27/1991 6:00,2550
1/28/1991 6:00,2770
1/29/1991 6:00,2790
1/30/1991 6:00,2430
1/31/1991 6:00,2280
2/1/1991 6:00,2250
2/2/1991 6:00,2490
2/3/1991 6:00,2820
2/4/1991 6:00,2970
2/5/1991 6:00,2970
2/6/1991 6:00,2570
2/7/1991 6:00,2850
2/8/1991 6:00,2680
2/9/1991 6:00,2800
2/10/1991 6:00,2710